KJ6MC Weather Reports


time (UTC)temp
C
wind
direction
speed
KPH
gust
KPH
rain 1hr
cm
rain 24hr
cm
rain mn
cm
humidity
%
barometer
mb
20260504023129 17 318 3.2 19.3 0.00 0.00 0.00 66 1011.5
20260504023006 17 235 3.2 19.3 0.00 0.00 0.00 66 1011.6
20260504022928 17 301 3.2 19.3 0.00 0.00 0.00 66 1011.5
20260504022824 17 266 4.8 19.3 0.00 0.00 0.00 66 1011.5
20260504022725 17 297 4.8 19.3 0.00 0.00 0.00 65 1011.5
20260504022719 17 248 4.8 19.3 0.00 0.00 0.00 66 1011.5
20260504022620 17 256 4.8 19.3 0.00 0.00 0.00 66 1011.5
20260504022612 17 281 4.8 19.3 0.00 0.00 0.00 65 1011.5
20260504022420 17 245 4.8 19.3 0.00 0.00 0.00 65 1011.5
20260504022319 17 262 4.8 19.3 0.00 0.00 0.00 65 1011.5
20260504022214 17 238 6.4 25.7 0.00 0.00 0.00 65 1011.4
20260504022114 17 270 6.4 25.7 0.00 0.00 0.00 64 1011.4
20260504022016 17 231 6.4 25.7 0.00 0.00 0.00 64 1011.4
20260504022005 17 269 6.4 25.7 0.00 0.00 0.00 64 1011.4
20260504021914 17 248 6.4 25.7 0.00 0.00 0.00 64 1011.3
20260504021813 17 242 6.4 25.7 0.00 0.00 0.00 63 1011.4
20260504021720 17 207 6.4 25.7 0.00 0.00 0.00 62 1011.3
20260504021712 17 240 6.4 25.7 0.00 0.00 0.00 63 1011.3
20260504021612 17 214 6.4 25.7 0.00 0.00 0.00 62 1011.3
20260504021557 17 236 6.4 25.7 0.00 0.00 0.00 62 1011.3
20260504021410 17 228 6.4 25.7 0.00 0.00 0.00 62 1011.3
20260504021307 17 232 6.4 25.7 0.00 0.00 0.00 62 1011.3
20260504021207 17 163 4.8 17.7 0.00 0.00 0.00 63 1011.3
20260504021202 17 225 4.8 17.7 0.00 0.00 0.00 63 1011.3
20260504021104 17 242 4.8 17.7 0.00 0.00 0.00 63 1011.3
20260504021055 17 259 4.8 17.7 0.00 0.00 0.00 63 1011.3
20260504020902 17 233 4.8 17.7 0.00 0.00 0.00 63 1011.3
20260504020802 17 269 4.8 17.7 0.00 0.00 0.00 63 1011.3
20260504020700 17 257 3.2 17.7 0.00 0.00 0.00 63 1011.4
20260504020559 17 190 4.8 17.7 0.00 0.00 0.00 63 1011.3
20260504020457 17 323 3.2 17.7 0.00 0.00 0.00 63 1011.2
20260504020443 17 174 3.2 17.7 0.00 0.00 0.00 63 1011.2
20260504020358 17 249 3.2 17.7 0.00 0.00 0.00 63 1011.2
20260504020255 17 260 3.2 17.7 0.00 0.00 0.00 63 1011.2
20260504020203 17 294 4.8 17.7 0.00 0.00 0.00 62 1011.2
20260504020156 17 235 3.2 17.7 0.00 0.00 0.00 63 1011.2
20260504020104 17 225 3.2 17.7 0.00 0.00 0.00 62 1011.2
20260504020055 17 278 4.8 17.7 0.00 0.00 0.00 62 1011.1
20260504015852 17 333 4.8 17.7 0.00 0.00 0.00 62 1011.2
20260504015749 17 301 4.8 17.7 0.00 0.00 0.00 61 1011.1
20260504015644 17 290 4.8 17.7 0.00 0.00 0.00 61 1011.1
20260504015544 17 232 4.8 17.7 0.00 0.00 0.00 61 1011.1
20260504015446 17 274 4.8 17.7 0.00 0.00 0.00 61 1011.1
20260504015344 17 248 4.8 17.7 0.00 0.00 0.00 61 1011.0
20260504015243 17 239 4.8 17.7 0.00 0.00 0.00 61 1011.0
20260504015142 17 259 4.8 16.1 0.00 0.00 0.00 61 1011.1
20260504015041 17 219 4.8 16.1 0.00 0.00 0.00 61 1011.1
20260504014947 18 219 4.8 16.1 0.00 0.00 0.00 60 1011.1
20260504014940 18 264 4.8 16.1 0.00 0.00 0.00 60 1011.1
20260504014839 18 243 4.8 16.1 0.00 0.00 0.00 60 1011.1
20260504014739 18 257 4.8 16.1 0.00 0.00 0.00 60 1011.1
20260504014638 18 212 4.8 16.1 0.00 0.00 0.00 60 1011.0
20260504014538 18 257 4.8 16.1 0.00 0.00 0.00 60 1011.1
20260504014444 18 248 4.8 16.1 0.00 0.00 0.00 60 1011.1
20260504014438 18 245 4.8 16.1 0.00 0.00 0.00 60 1011.0
20260504014337 18 259 6.4 16.1 0.00 0.00 0.00 60 1011.0
20260504014238 18 287 6.4 16.1 0.00 0.00 0.00 60 1010.9
20260504014136 18 198 6.4 19.3 0.00 0.00 0.00 61 1011.0
20260504014036 18 273 6.4 25.7 0.00 0.00 0.00 60 1011.0
20260504013935 18 236 6.4 25.7 0.00 0.00 0.00 61 1011.0
20260504013836 18 245 6.4 25.7 0.00 0.00 0.00 60 1011.0
20260504013734 18 239 6.4 25.7 0.00 0.00 0.00 60 1011.1
20260504013706 18 221 6.4 25.7 0.00 0.00 0.00 60 1011.0
20260504013634 18 229 6.4 25.7 0.00 0.00 0.00 60 1011.0
20260504013552 18 229 6.4 25.7 0.00 0.00 0.00 60 1011.1
20260504013431 18 281 6.4 25.7 0.00 0.00 0.00 60 1011.0
20260504013332 18 263 6.4 25.7 0.00 0.00 0.00 60 1011.1
20260504013231 18 240 6.4 25.7 0.00 0.00 0.00 60 1011.1
20260504013132 18 215 6.4 25.7 0.00 0.00 0.00 60 1011.1
20260504013031 18 229 6.4 20.9 0.00 0.00 0.00 60 1011.0
20260504012942 18 243 6.4 20.9 0.00 0.00 0.00 60 1011.0
20260504012929 18 218 6.4 20.9 0.00 0.00 0.00 60 1011.0
20260504012830 18 229 6.4 20.9 0.00 0.00 0.00 60 1011.0
20260504012727 18 257 4.8 20.9 0.00 0.00 0.00 60 1011.1
20260504012628 18 197 6.4 20.9 0.00 0.00 0.00 60 1011.1
20260504012524 18 262 6.4 20.9 0.00 0.00 0.00 61 1011.1
20260504012441 18 250 6.4 20.9 0.00 0.00 0.00 60 1011.0
20260504012418 18 285 6.4 24.1 0.00 0.00 0.00 60 1011.0
20260504012317 18 257 6.4 24.1 0.00 0.00 0.00 60 1011.1
20260504012218 18 215 6.4 24.1 0.00 0.00 0.00 61 1011.0
20260504012206 18 307 6.4 24.1 0.00 0.00 0.00 61 1011.1
20260504012118 18 252 6.4 24.1 0.00 0.00 0.00 61 1011.0
20260504012054 18 215 6.4 24.1 0.00 0.00 0.00 61 1011.1
20260504011914 18 248 8.0 24.1 0.00 0.00 0.00 61 1011.1
20260504011815 18 266 8.0 24.1 0.00 0.00 0.00 61 1011.1
20260504011715 18 242 8.0 24.1 0.00 0.00 0.00 60 1011.1
20260504011706 18 245 6.4 24.1 0.00 0.00 0.00 60 1011.1
20260504011614 18 219 8.0 24.1 0.00 0.00 0.00 60 1011.1
20260504011552 18 245 8.0 24.1 0.00 0.00 0.00 60 1011.1
20260504011408 18 233 6.4 20.9 0.00 0.00 0.00 60 1011.1
20260504011308 18 224 6.4 20.9 0.00 0.00 0.00 60 1011.1
20260504011208 18 248 4.8 20.9 0.00 0.00 0.00 60 1011.1
20260504011108 18 231 4.8 20.9 0.00 0.00 0.00 61 1011.0
20260504011005 18 231 4.8 20.9 0.00 0.00 0.00 61 1011.0
20260504010943 18 203 4.8 20.9 0.00 0.00 0.00 61 1011.0
20260504010900 18 226 4.8 16.1 0.00 0.00 0.00 61 1011.0
20260504010800 18 262 6.4 17.7 0.00 0.00 0.00 61 1011.0
20260504010659 18 319 6.4 17.7 0.00 0.00 0.00 60 1011.0
20260504010600 18 253 6.4 17.7 0.00 0.00 0.00 61 1011.0
20260504010458 18 235 4.8 17.7 0.00 0.00 0.00 61 1011.0
20260504010441 18 284 4.8 17.7 0.00 0.00 0.00 61 1011.0
20260504010352 18 212 6.4 17.7 0.00 0.00 0.00 61 1011.0
20260504010252 18 301 6.4 17.7 0.00 0.00 0.00 60 1011.0
20260504010152 18 250 6.4 17.7 0.00 0.00 0.00 60 1011.0
20260504010054 18 288 6.4 17.7 0.00 0.00 0.00 60 1011.0
20260504005953 18 228 6.4 17.7 0.00 0.00 0.00 60 1011.0
20260504005943 18 221 6.4 17.7 0.00 0.00 0.00 60 1011.0
20260504005846 18 250 6.4 17.7 0.00 0.00 0.00 59 1011.0
20260504005746 18 231 4.8 17.7 0.00 0.00 0.00 60 1011.0
20260504005645 18 212 4.8 17.7 0.00 0.00 0.00 60 1011.0
20260504005546 18 240 4.8 17.7 0.00 0.00 0.00 60 1011.0
20260504005444 18 193 4.8 17.7 0.00 0.00 0.00 59 1011.0
20260504005338 18 250 4.8 17.7 0.00 0.00 0.00 59 1011.0
20260504005238 18 287 4.8 17.7 0.00 0.00 0.00 59 1011.0
20260504005038 18 248 4.8 16.1 0.00 0.00 0.00 60 1011.0
20260504004943 18 233 4.8 16.1 0.00 0.00 0.00 60 1011.0
20260504004937 18 212 6.4 16.1 0.00 0.00 0.00 60 1011.0
20260504004831 18 253 6.4 20.9 0.00 0.00 0.00 60 1010.9
20260504004732 18 243 6.4 20.9 0.00 0.00 0.00 60 1011.0
20260504004632 18 233 6.4 20.9 0.00 0.00 0.00 60 1011.0
20260504004531 18 248 6.4 20.9 0.00 0.00 0.00 60 1011.0
20260504004439 18 278 6.4 20.9 0.00 0.00 0.00 60 1011.0
20260504004431 18 245 6.4 20.9 0.00 0.00 0.00 60 1011.0
20260504004328 18 287 4.8 20.9 0.00 0.00 0.00 60 1011.1
20260504004226 18 235 4.8 20.9 0.00 0.00 0.00 60 1011.0
20260504004126 18 240 4.8 20.9 0.00 0.00 0.00 60 1011.1
20260504004026 18 252 4.8 20.9 0.00 0.00 0.00 61 1011.0
20260504003938 18 294 4.8 20.9 0.00 0.00 0.00 61 1011.0
20260504003925 18 260 4.8 20.9 0.00 0.00 0.00 61 1011.0
20260504003823 18 241 4.8 17.7 0.00 0.00 0.00 61 1011.1
20260504003725 18 248 4.8 17.7 0.00 0.00 0.00 61 1011.0
20260504003713 18 264 4.8 17.7 0.00 0.00 0.00 61 1011.1
20260504003622 18 245 4.8 17.7 0.00 0.00 0.00 61 1011.0
20260504003552 18 186 4.8 17.7 0.00 0.00 0.00 61 1011.0
20260504003419 18 226 4.8 17.7 0.00 0.00 0.00 61 1011.1
20260504003315 18 231 4.8 17.7 0.00 0.00 0.00 60 1011.0
20260504003216 18 224 4.8 17.7 0.00 0.00 0.00 60 1011.0
20260504003116 18 230 3.2 16.1 0.00 0.00 0.00 60 1011.0
20260504003017 18 274 3.2 16.1 0.00 0.00 0.00 60 1011.0
20260504002938 18 248 3.2 16.1 0.00 0.00 0.00 60 1011.0
20260504002913 18 236 3.2 16.1 0.00 0.00 0.00 60 1011.0
20260504002807 18 228 3.2 16.1 0.00 0.00 0.00 60 1011.0
20260504002708 18 203 3.2 14.5 0.00 0.00 0.00 60 1011.0
20260504002608 18 232 3.2 16.1 0.00 0.00 0.00 60 1011.0
20260504002507 18 300 3.2 16.1 0.00 0.00 0.00 60 1011.0
20260504002436 18 224 4.8 16.1 0.00 0.00 0.00 60 1011.0
20260504002407 18 245 4.8 16.1 0.00 0.00 0.00 60 1011.0
20260504002303 18 276 4.8 20.9 0.00 0.00 0.00 60 1011.0
20260504002202 18 289 4.8 20.9 0.00 0.00 0.00 60 1011.0
20260504002102 18 319 4.8 20.9 0.00 0.00 0.00 60 1011.0
20260504002002 18 287 4.8 20.9 0.00 0.00 0.00 59 1011.0
20260504001937 18 297 4.8 20.9 0.00 0.00 0.00 59 1011.0
20260504001901 19 284 4.8 20.9 0.00 0.00 0.00 59 1011.0
20260504001758 19 250 6.4 20.9 0.00 0.00 0.00 59 1011.0
20260504001556 19 240 6.4 22.5 0.00 0.00 0.00 60 1011.1
20260504001456 19 231 6.4 22.5 0.00 0.00 0.00 59 1011.1
20260504001436 19 240 6.4 22.5 0.00 0.00 0.00 59 1011.0
20260504001355 19 215 6.4 22.5 0.00 0.00 0.00 60 1011.0
20260504001252 19 288 6.4 22.5 0.00 0.00 0.00 59 1011.0
20260504001150 19 248 6.4 22.5 0.00 0.00 0.00 59 1011.0
20260504001050 19 243 6.4 22.5 0.00 0.00 0.00 59 1011.0
20260504000949 19 276 6.4 22.5 0.00 0.00 0.00 58 1011.0
20260504000933 19 276 8.0 22.5 0.00 0.00 0.00 58 1011.0
20260504000850 19 222 8.0 29.0 0.00 0.00 0.00 58 1011.1
20260504000748 19 270 8.0 29.0 0.00 0.00 0.00 58 1011.1
20260504000648 19 226 8.0 29.0 0.00 0.00 0.00 58 1011.1
20260504000547 19 203 8.0 29.0 0.00 0.00 0.00 58 1011.0
20260504000448 19 253 8.0 29.0 0.00 0.00 0.00 59 1011.0
20260504000433 19 281 8.0 29.0 0.00 0.00 0.00 58 1011.0
20260504000349 19 281 8.0 29.0 0.00 0.00 0.00 58 1011.1
20260504000241 19 280 8.0 29.0 0.00 0.00 0.00 57 1011.1
20260504000138 19 242 6.4 29.0 0.00 0.00 0.00 57 1011.1
20260504000036 20 231 6.4 29.0 0.00 0.00 0.00 57 1011.1
20260503235938 20 225 4.8 29.0 0.00 0.00 0.00 57 1011.1
20260503235833 20 258 4.8 16.1 0.00 0.00 0.00 56 1011.1
20260503235730 20 239 4.8 16.1 0.00 0.00 0.00 57 1011.1
20260503235627 20 205 3.2 16.1 0.00 0.00 0.00 56 1011.1
20260503235528 20 183 3.2 16.1 0.00 0.00 0.00 57 1011.1
20260503235436 20 249 3.2 16.1 0.00 0.00 0.00 56 1011.1
20260503235428 20 276 3.2 16.1 0.00 0.00 0.00 57 1011.1
20260503235327 20 76 3.2 16.1 0.00 0.00 0.00 57 1011.1
20260503235222 20 243 3.2 16.1 0.00 0.00 0.00 58 1011.1
20260503235204 20 235 1.6 16.1 0.00 0.00 0.00 57 1011.1
20260503235042 20 231 3.2 16.1 0.00 0.00 0.00 58 1011.1
20260503234922 20 214 1.6 16.1 0.00 0.00 0.00 57 1011.1
20260503234821 20 181 1.6 9.7 0.00 0.00 0.00 57 1011.2
20260503234718 20 248 1.6 8.0 0.00 0.00 0.00 57 1011.1
20260503234616 20 232 1.6 6.4 0.00 0.00 0.00 57 1011.1
20260503234516 20 273 1.6 4.8 0.00 0.00 0.00 58 1011.1
20260503234433 20 271 1.6 4.8 0.00 0.00 0.00 58 1011.1
20260503234416 20 307 1.6 4.8 0.00 0.00 0.00 58 1011.1
20260503234315 20 239 1.6 3.2 0.00 0.00 0.00 58 1011.1
20260503234211 20 286 1.6 3.2 0.00 0.00 0.00 58 1011.1
20260503234110 20 276 1.6 3.2 0.00 0.00 0.00 58 1011.1
20260503234010 20 245 1.6 12.9 0.00 0.00 0.00 57 1011.0
20260503233931 20 245 1.6 14.5 0.00 0.00 0.00 58 1011.1
20260503233910 20 218 1.6 14.5 0.00 0.00 0.00 58 1011.1
20260503233810 20 212 3.2 14.5 0.00 0.00 0.00 57 1011.2
20260503233710 20 294 3.2 16.1 0.00 0.00 0.00 58 1011.1
20260503233608 20 124 3.2 16.1 0.00 0.00 0.00 58 1011.1
20260503233508 20 274 3.2 16.1 0.00 0.00 0.00 59 1011.1
20260503233406 20 274 3.2 16.1 0.00 0.00 0.00 59 1011.2
20260503233303 20 274 3.2 16.1 0.00 0.00 0.00 58 1011.2
20260503233201 20 236 3.2 16.1 0.00 0.00 0.00 57 1011.2
20260503233102 20 248 3.2 16.1 0.00 0.00 0.00 57 1011.1
20260503233000 20 231 3.2 16.1 0.00 0.00 0.00 58 1011.2
20260503232929 20 185 3.2 16.1 0.00 0.00 0.00 57 1011.1
20260503232901 20 263 3.2 16.1 0.00 0.00 0.00 57 1011.1
20260503232758 20 240 1.6 14.5 0.00 0.00 0.00 57 1011.1
20260503232652 20 270 3.2 12.9 0.00 0.00 0.00 57 1011.1
20260503232551 20 219 3.2 12.9 0.00 0.00 0.00 58 1011.2
20260503232452 20 248 3.2 12.9 0.00 0.00 0.00 58 1011.1
20260503232429 20 250 3.2 12.9 0.00 0.00 0.00 58 1011.1
20260503232352 20 256 3.2 12.9 0.00 0.00 0.00 58 1011.1
20260503232249 20 242 3.2 12.9 0.00 0.00 0.00 58 1011.1
20260503232146 20 249 3.2 12.9 0.00 0.00 0.00 58 1011.0
20260503232044 20 248 3.2 12.9 0.00 0.00 0.00 58 1011.0
20260503231944 20 248 3.2 12.9 0.00 0.00 0.00 58 1011.1
20260503231923 20 249 3.2 12.9 0.00 0.00 0.00 57 1011.1
20260503231844 20 212 3.2 12.9 0.00 0.00 0.00 57 1011.0
20260503231743 20 212 3.2 12.9 0.00 0.00 0.00 57 1011.0
20260503231640 20 226 3.2 11.3 0.00 0.00 0.00 59 1011.0
20260503231539 20 236 3.2 22.5 0.00 0.00 0.00 59 1011.0
20260503231440 20 233 3.2 22.5 0.00 0.00 0.00 59 1011.0
20260503231417 20 256 3.2 22.5 0.00 0.00 0.00 59 1011.0
20260503231340 19 257 4.8 22.5 0.00 0.00 0.00 59 1010.9
20260503231237 19 239 4.8 22.5 0.00 0.00 0.00 58 1010.9
20260503231136 19 210 6.4 22.5 0.00 0.00 0.00 59 1010.9
20260503231035 19 217 6.4 22.5 0.00 0.00 0.00 58 1010.9
20260503230936 19 274 6.4 22.5 0.00 0.00 0.00 58 1010.9
20260503230910 19 259 6.4 22.5 0.00 0.00 0.00 58 1010.9
20260503230834 19 252 6.4 22.5 0.00 0.00 0.00 58 1010.9
20260503230731 19 294 6.4 22.5 0.00 0.00 0.00 58 1010.9
20260503230626 19 285 6.4 22.5 0.00 0.00 0.00 58 1010.9
20260503230526 19 238 6.4 16.1 0.00 0.00 0.00 58 1010.9
20260503230426 19 231 6.4 16.1 0.00 0.00 0.00 58 1010.8
20260503230404 19 233 6.4 16.1 0.00 0.00 0.00 58 1010.8
20260503230353 19 239 6.4 17.7 0.00 0.00 0.00 58 1010.8
20260503230326 19 240 6.4 16.1 0.00 0.00 0.00 57 1010.9
20260503230237 20 212 6.4 16.1 0.00 0.00 0.00 57 1010.9
20260503230124 20 218 6.4 14.5 0.00 0.00 0.00 58 1010.9
20260503230020 19 226 6.4 14.5 0.00 0.00 0.00 58 1010.8
20260503230011 19 273 6.4 17.7 0.00 0.00 0.00 58 1010.8
20260503225820 19 245 6.4 17.7 0.00 0.00 0.00 58 1010.9
20260503225719 19 246 6.4 17.7 0.00 0.00 0.00 57 1010.9
20260503225618 20 236 6.4 17.7 0.00 0.00 0.00 57 1010.9
20260503225518 20 228 6.4 17.7 0.00 0.00 0.00 57 1010.9
20260503225418 20 264 4.8 17.7 0.00 0.00 0.00 57 1010.9
20260503225354 20 263 4.8 17.7 0.00 0.00 0.00 57 1010.9
20260503225316 20 225 4.8 17.7 0.00 0.00 0.00 57 1010.8
20260503225213 20 231 4.8 17.7 0.00 0.00 0.00 56 1010.9
20260503225119 20 277 4.8 17.7 0.00 0.00 0.00 57 1010.9
20260503225108 20 267 4.8 17.7 0.00 0.00 0.00 56 1010.9
20260503225008 20 221 4.8 17.7 0.00 0.00 0.00 56 1010.9
20260503224959 20 200 4.8 17.7 0.00 0.00 0.00 57 1010.8
20260503224808 20 240 4.8 17.7 0.00 0.00 0.00 56 1010.9
20260503224707 20 263 4.8 17.7 0.00 0.00 0.00 57 1010.8
20260503224605 20 260 3.2 17.7 0.00 0.00 0.00 57 1010.9
20260503224506 20 215 4.8 17.7 0.00 0.00 0.00 57 1010.8
20260503224404 20 312 4.8 17.7 0.00 0.00 0.00 57 1010.8
20260503224344 20 231 6.4 17.7 0.00 0.00 0.00 57 1010.8
20260503224304 20 229 6.4 17.7 0.00 0.00 0.00 57 1010.8
20260503224201 20 290 6.4 24.1 0.00 0.00 0.00 57 1010.8
20260503224055 20 277 6.4 24.1 0.00 0.00 0.00 57 1010.9
20260503223956 20 238 8.0 24.1 0.00 0.00 0.00 57 1011.0
20260503223856 20 257 8.0 24.1 0.00 0.00 0.00 58 1010.9
20260503223836 20 266 9.7 24.1 0.00 0.00 0.00 58 1011.0
20260503223756 20 284 9.7 24.1 0.00 0.00 0.00 57 1011.0
20260503223655 20 262 9.7 24.1 0.00 0.00 0.00 58 1010.9
20260503223552 20 217 9.7 24.1 0.00 0.00 0.00 57 1010.9
20260503223452 20 200 9.7 24.1 0.00 0.00 0.00 56 1011.0
20260503223352 20 232 9.7 24.1 0.00 0.00 0.00 56 1011.0
20260503223331 20 250 8.0 24.1 0.00 0.00 0.00 56 1011.0
20260503223252 20 225 8.0 24.1 0.00 0.00 0.00 57 1011.0
20260503223149 20 214 8.0 24.1 0.00 0.00 0.00 57 1011.0
20260503223044 20 170 8.0 24.1 0.00 0.00 0.00 56 1011.0
20260503222943 20 131 8.0 22.5 0.00 0.00 0.00 56 1010.9
20260503222844 20 203 8.0 17.7 0.00 0.00 0.00 56 1010.9
20260503222823 20 207 6.4 17.7 0.00 0.00 0.00 56 1010.9
20260503222744 20 251 6.4 17.7 0.00 0.00 0.00 57 1010.9
20260503222644 20 266 6.4 17.7 0.00 0.00 0.00 57 1010.9
20260503222539 20 253 6.4 17.7 0.00 0.00 0.00 57 1010.9
20260503222438 20 232 6.4 17.7 0.00 0.00 0.00 57 1011.0
20260503222338 20 226 6.4 17.7 0.00 0.00 0.00 57 1011.0
20260503222320 20 274 6.4 17.7 0.00 0.00 0.00 57 1011.0
20260503222238 20 239 6.4 17.7 0.00 0.00 0.00 56 1011.0
20260503222137 20 245 6.4 17.7 0.00 0.00 0.00 56 1011.0
20260503222034 20 176 6.4 17.7 0.00 0.00 0.00 57 1011.0
20260503221932 20 177 6.4 19.3 0.00 0.00 0.00 57 1011.0
20260503221832 20 258 6.4 19.3 0.00 0.00 0.00 56 1011.0
20260503221812 20 257 6.4 19.3 0.00 0.00 0.00 56 1011.0
20260503221732 20 283 6.4 19.3 0.00 0.00 0.00 57 1011.0
20260503221631 20 216 8.0 19.3 0.00 0.00 0.00 57 1011.1
20260503221526 20 240 8.0 20.9 0.00 0.00 0.00 56 1011.0
20260503221426 20 238 8.0 20.9 0.00 0.00 0.00 57 1011.1
20260503221326 20 233 8.0 20.9 0.00 0.00 0.00 57 1011.0
20260503221304 20 225 8.0 20.9 0.00 0.00 0.00 57 1011.0
20260503221227 20 314 8.0 20.9 0.00 0.00 0.00 56 1011.0
20260503221125 20 263 8.0 20.9 0.00 0.00 0.00 56 1011.0
20260503221024 20 259 6.4 20.9 0.00 0.00 0.00 57 1011.1
20260503220924 20 155 6.4 20.9 0.00 0.00 0.00 56 1011.1
20260503220824 20 148 6.4 22.5 0.00 0.00 0.00 55 1011.1
20260503220802 20 242 6.4 22.5 0.00 0.00 0.00 55 1011.1
20260503220724 20 256 6.4 22.5 0.00 0.00 0.00 55 1011.1
20260503220624 21 239 6.4 22.5 0.00 0.00 0.00 55 1011.1
20260503220523 21 236 4.8 22.5 0.00 0.00 0.00 56 1011.1
20260503220421 21 252 4.8 22.5 0.00 0.00 0.00 56 1011.1
20260503220322 21 204 6.4 22.5 0.00 0.00 0.00 57 1011.1
20260503220259 21 219 6.4 22.5 0.00 0.00 0.00 58 1011.1
20260503220252 21 232 6.4 22.5 0.00 0.00 0.00 57 1011.1
20260503220222 21 219 6.4 22.5 0.00 0.00 0.00 58 1011.1
20260503220122 21 253 8.0 22.5 0.00 0.00 0.00 57 1011.1
20260503220020 20 229 8.0 22.5 0.00 0.00 0.00 57 1011.1
20260503215918 20 267 8.0 22.5 0.00 0.00 0.00 57 1011.2
20260503215818 20 169 8.0 20.9 0.00 0.00 0.00 57 1011.2
20260503215749 20 217 8.0 20.9 0.00 0.00 0.00 57 1011.2
20260503215718 20 139 8.0 20.9 0.00 0.00 0.00 58 1011.2
20260503215617 20 122 8.0 20.9 0.00 0.00 0.00 58 1011.2
20260503215518 20 169 8.0 20.9 0.00 0.00 0.00 58 1011.2
20260503215417 20 240 8.0 20.9 0.00 0.00 0.00 58 1011.3
20260503215312 20 218 8.0 20.9 0.00 0.00 0.00 58 1011.3
20260503215249 20 231 8.0 20.9 0.00 0.00 0.00 58 1011.3
20260503215212 20 219 8.0 20.9 0.00 0.00 0.00 57 1011.3
20260503215117 20 243 8.0 20.9 0.00 0.00 0.00 57 1011.3
20260503215012 20 281 8.0 20.9 0.00 0.00 0.00 58 1011.3
20260503214910 20 104 6.4 19.3 0.00 0.00 0.00 58 1011.4
20260503214804 20 245 6.4 19.3 0.00 0.00 0.00 59 1011.4
20260503214751 20 5 6.4 19.3 0.00 0.00 0.00 59 1011.4
20260503214703 20 143 8.0 19.3 0.00 0.00 0.00 60 1011.3
20260503214604 20 244 8.0 19.3 0.00 0.00 0.00 59 1011.3
20260503214503 20 242 8.0 19.3 0.00 0.00 0.00 59 1011.4
20260503214403 20 210 8.0 19.3 0.00 0.00 0.00 59 1011.3
20260503214300 20 233 8.0 19.3 0.00 0.00 0.00 58 1011.4
20260503214253 20 231 8.0 19.3 0.00 0.00 0.00 59 1011.4
20260503214158 20 242 8.0 20.9 0.00 0.00 0.00 60 1011.4
20260503214057 20 252 8.0 24.1 0.00 0.00 0.00 61 1011.3
20260503213957 20 257 8.0 24.1 0.00 0.00 0.00 61 1011.3
20260503213858 20 236 8.0 24.1 0.00 0.00 0.00 61 1011.3
20260503213800 20 269 9.7 24.1 0.00 0.00 0.00 60 1011.4
20260503213754 20 232 9.7 24.1 0.00 0.00 0.00 60 1011.4
20260503213658 20 235 8.0 24.1 0.00 0.00 0.00 60 1011.4
20260503213558 19 110 8.0 24.1 0.00 0.00 0.00 61 1011.3
20260503213458 19 243 8.0 24.1 0.00 0.00 0.00 59 1011.3
20260503213357 20 240 8.0 24.1 0.00 0.00 0.00 59 1011.3
20260503213258 20 263 8.0 24.1 0.00 0.00 0.00 58 1011.4
20260503213250 20 233 8.0 24.1 0.00 0.00 0.00 58 1011.4
20260503213158 20 245 6.4 24.1 0.00 0.00 0.00 59 1011.4
20260503213058 20 214 6.4 17.7 0.00 0.00 0.00 60 1011.4
20260503213008 20 217 6.4 19.3 0.00 0.00 0.00 61 1011.4
20260503212959 20 219 8.0 19.3 0.00 0.00 0.00 60 1011.3
20260503212905 20 136 6.4 19.3 0.00 0.00 0.00 60 1011.3
20260503212857 20 232 6.4 19.3 0.00 0.00 0.00 61 1011.4
20260503212657 19 231 6.4 19.3 0.00 0.00 0.00 62 1011.3
20260503212552 19 316 8.0 22.5 0.00 0.00 0.00 62 1011.2
20260503212452 19 280 9.7 22.5 0.00 0.00 0.00 60 1011.4
20260503212352 19 245 9.7 22.5 0.00 0.00 0.00 62 1011.4
20260503212251 19 222 9.7 22.5 0.00 0.00 0.00 61 1011.4
20260503212150 19 217 9.7 22.5 0.00 0.00 0.00 60 1011.4
20260503212043 19 235 9.7 24.1 0.00 0.00 0.00 61 1011.5
20260503211944 19 259 9.7 24.1 0.00 0.00 0.00 61 1011.4
20260503211844 19 266 11.3 24.1 0.00 0.00 0.00 61 1011.5
20260503211750 19 225 11.3 24.1 0.00 0.00 0.00 60 1011.5
20260503211744 19 253 11.3 24.1 0.00 0.00 0.00 60 1011.5
20260503211643 19 210 9.7 24.1 0.00 0.00 0.00 60 1011.5
20260503211544 20 240 9.7 24.1 0.00 0.00 0.00 60 1011.5
20260503211444 20 225 9.7 24.1 0.00 0.00 0.00 60 1011.5
20260503211344 20 271 9.7 24.1 0.00 0.00 0.00 61 1011.5
20260503211251 20 229 8.0 24.1 0.00 0.00 0.00 61 1011.6
20260503211244 20 225 8.0 24.1 0.00 0.00 0.00 61 1011.6
20260503211143 20 139 8.0 24.1 0.00 0.00 0.00 61 1011.5
20260503211044 20 205 6.4 20.9 0.00 0.00 0.00 61 1011.6
20260503210942 20 170 6.4 20.9 0.00 0.00 0.00 60 1011.7
20260503210842 20 207 6.4 20.9 0.00 0.00 0.00 60 1011.7
20260503210749 20 204 4.8 17.7 0.00 0.00 0.00 61 1011.7
20260503210741 20 239 4.8 17.7 0.00 0.00 0.00 61 1011.7
20260503210640 20 264 4.8 17.7 0.00 0.00 0.00 61 1011.7
20260503210539 20 241 4.8 17.7 0.00 0.00 0.00 60 1011.7
20260503210510 20 197 4.8 17.7 0.00 0.00 0.00 60 1011.7
20260503210437 20 191 4.8 17.7 0.00 0.00 0.00 61 1011.7
20260503210400 20 217 4.8 17.7 0.00 0.00 0.00 60 1011.7
20260503210238 20 215 4.8 17.7 0.00 0.00 0.00 60 1011.7
20260503210137 20 224 4.8 17.7 0.00 0.00 0.00 60 1011.7
20260503210037 20 267 4.8 17.7 0.00 0.00 0.00 60 1011.8
20260503210007 20 226 6.4 20.9 0.00 0.00 0.00 61 1011.8
20260503205938 20 235 6.4 20.9 0.00 0.00 0.00 60 1011.8
20260503205901 20 248 6.4 20.9 0.00 0.00 0.00 60 1011.8
20260503205731 19 229 6.4 20.9 0.00 0.00 0.00 62 1011.7
20260503205631 19 243 6.4 20.9 0.00 0.00 0.00 62 1011.8
20260503205532 19 219 6.4 20.9 0.00 0.00 0.00 62 1011.8
20260503205517 19 233 8.0 24.1 0.00 0.00 0.00 61 1011.8
20260503205430 19 219 8.0 20.9 0.00 0.00 0.00 62 1011.8
20260503205401 19 226 8.0 24.1 0.00 0.00 0.00 60 1011.8
20260503205226 19 219 8.0 24.1 0.00 0.00 0.00 61 1011.8
20260503205124 19 273 8.0 24.1 0.00 0.00 0.00 61 1011.8
20260503205023 19 219 8.0 24.1 0.00 0.00 0.00 61 1011.7
20260503204923 19 239 8.0 24.1 0.00 0.00 0.00 62 1011.7
20260503204824 18 263 9.7 24.1 0.00 0.00 0.00 63 1011.8
20260503204742 18 245 9.7 24.1 0.00 0.00 0.00 62 1011.8
20260503204726 18 242 9.7 24.1 0.00 0.00 0.00 62 1011.8
20260503204623 18 239 9.7 24.1 0.00 0.00 0.00 62 1011.8
20260503204524 18 260 9.7 24.1 0.00 0.00 0.00 61 1011.7
20260503204424 18 231 8.0 24.1 0.00 0.00 0.00 61 1011.8
20260503204324 18 226 9.7 22.5 0.00 0.00 0.00 62 1011.8
20260503204239 18 309 9.7 22.5 0.00 0.00 0.00 61 1011.8
20260503204222 18 221 9.7 22.5 0.00 0.00 0.00 61 1011.8
20260503204121 19 267 9.7 22.5 0.00 0.00 0.00 61 1011.8
20260503204022 19 212 9.7 27.4 0.00 0.00 0.00 61 1011.8
20260503203922 19 248 9.7 27.4 0.00 0.00 0.00 61 1011.8
20260503203819 19 198 8.0 27.4 0.00 0.00 0.00 61 1011.8
20260503203740 19 239 8.0 27.4 0.00 0.00 0.00 61 1011.8
20260503203717 19 312 8.0 27.4 0.00 0.00 0.00 61 1011.8
20260503203618 19 291 8.0 27.4 0.00 0.00 0.00 61 1011.8
20260503203518 19 256 6.4 27.4 0.00 0.00 0.00 60 1011.8
20260503203417 20 259 6.4 27.4 0.00 0.00 0.00 60 1011.9
20260503203318 20 215 4.8 27.4 0.00 0.00 0.00 59 1011.8
20260503203246 20 239 4.8 27.4 0.00 0.00 0.00 58 1011.9
20260503203217 20 240 4.8 27.4 0.00 0.00 0.00 58 1011.9
20260503203111 20 239 3.2 27.4 0.00 0.00 0.00 59 1011.8
20260503203011 20 307 3.2 12.9 0.00 0.00 0.00 60 1011.8
20260503202912 20 221 4.8 12.9 0.00 0.00 0.00 62 1011.9
20260503202812 20 322 4.8 12.9 0.00 0.00 0.00 61 1011.9
20260503202744 20 195 4.8 12.9 0.00 0.00 0.00 61 1011.9
20260503202710 20 219 4.8 12.9 0.00 0.00 0.00 61 1011.9
20260503202604 20 248 4.8 12.9 0.00 0.00 0.00 61 1011.8
20260503202504 20 312 6.4 14.5 0.00 0.00 0.00 60 1011.9
20260503202403 20 211 6.4 14.5 0.00 0.00 0.00 60 1011.9
20260503202304 20 219 8.0 20.9 0.00 0.00 0.00 60 1011.8
20260503202246 20 236 8.0 20.9 0.00 0.00 0.00 60 1011.8
20260503202203 20 236 8.0 20.9 0.00 0.00 0.00 60 1011.8
20260503202104 20 250 8.0 20.9 0.00 0.00 0.00 61 1011.9
20260503202013 19 224 8.0 20.9 0.00 0.00 0.00 61 1011.8
20260503202004 20 207 8.0 20.9 0.00 0.00 0.00 61 1011.9
20260503201904 19 204 8.0 20.9 0.00 0.00 0.00 61 1011.8
20260503201846 19 231 8.0 20.9 0.00 0.00 0.00 61 1011.8
20260503201704 19 242 8.0 20.9 0.00 0.00 0.00 62 1011.8
20260503201603 19 214 8.0 20.9 0.00 0.00 0.00 60 1011.8
20260503201501 19 256 8.0 20.9 0.00 0.00 0.00 60 1011.8
20260503201402 19 233 8.0 20.9 0.00 0.00 0.00 60 1011.8
20260503201302 19 266 6.4 20.9 0.00 0.00 0.00 60 1011.8
20260503201240 19 256 6.4 20.9 0.00 0.00 0.00 60 1011.7
20260503201200 19 235 6.4 19.3 0.00 0.00 0.00 61 1011.7
20260503201100 19 218 6.4 19.3 0.00 0.00 0.00 61 1011.8
20260503200958 19 200 6.4 19.3 0.00 0.00 0.00 61 1011.8
20260503200858 19 303 4.8 19.3 0.00 0.00 0.00 61 1011.8
20260503200758 19 217 6.4 14.5 0.00 0.00 0.00 62 1011.8
20260503200741 19 233 6.4 16.1 0.00 0.00 0.00 62 1011.8
20260503200658 19 225 6.4 16.1 0.00 0.00 0.00 61 1011.8
20260503200558 19 176 4.8 16.1 0.00 0.00 0.00 60 1011.8
20260503200457 19 228 4.8 16.1 0.00 0.00 0.00 61 1011.8
20260503200352 19 236 4.8 16.1 0.00 0.00 0.00 61 1011.9
20260503200251 19 252 6.4 20.9 0.00 0.00 0.00 60 1011.8
20260503200240 19 278 6.4 20.9 0.00 0.00 0.00 60 1011.8
20260503200152 19 248 6.4 20.9 0.00 0.00 0.00 61 1011.8
20260503200052 19 165 4.8 20.9 0.00 0.00 0.00 61 1011.8
20260503195950 19 270 6.4 20.9 0.00 0.00 0.00 60 1011.8
20260503195844 20 278 6.4 20.9 0.00 0.00 0.00 60 1011.8
20260503195747 20 305 6.4 20.9 0.00 0.00 0.00 61 1011.8
20260503195741 20 285 6.4 20.9 0.00 0.00 0.00 61 1011.8
20260503195644 19 172 6.4 20.9 0.00 0.00 0.00 62 1011.8
20260503195543 19 290 6.4 20.9 0.00 0.00 0.00 62 1011.8
20260503195443 19 269 6.4 20.9 0.00 0.00 0.00 63 1011.8
20260503195339 19 271 6.4 20.9 0.00 0.00 0.00 62 1011.8
20260503195239 19 278 4.8 17.7 0.00 0.00 0.00 62 1011.8
20260503195138 19 238 4.8 17.7 0.00 0.00 0.00 62 1011.7
20260503195038 19 266 4.8 17.7 0.00 0.00 0.00 62 1011.8
20260503194935 19 215 6.4 20.9 0.00 0.00 0.00 62 1011.7
20260503194830 18 205 6.4 20.9 0.00 0.00 0.00 62 1011.8
20260503194741 18 274 6.4 20.9 0.00 0.00 0.00 63 1011.8
20260503194729 18 274 6.4 20.9 0.00 0.00 0.00 62 1011.8
20260503194628 18 221 4.8 20.9 0.00 0.00 0.00 63 1011.8
20260503194528 18 246 6.4 20.9 0.00 0.00 0.00 63 1011.8
20260503194427 18 236 8.0 20.9 0.00 0.00 0.00 64 1011.8
20260503194322 18 217 8.0 25.7 0.00 0.00 0.00 64 1011.8
20260503194239 18 285 8.0 25.7 0.00 0.00 0.00 64 1011.8
20260503194222 18 242 8.0 25.7 0.00 0.00 0.00 63 1011.8
20260503194122 18 255 8.0 25.7 0.00 0.00 0.00 62 1011.8
20260503194022 18 226 8.0 25.7 0.00 0.00 0.00 63 1011.8
20260503193919 18 236 8.0 25.7 0.00 0.00 0.00 63 1011.8
20260503193814 18 228 9.7 25.7 0.00 0.00 0.00 64 1011.8
20260503193740 18 300 9.7 25.7 0.00 0.00 0.00 64 1011.8
20260503193713 18 301 9.7 25.7 0.00 0.00 0.00 64 1011.8
20260503193614 18 255 11.3 25.7 0.00 0.00 0.00 63 1011.9
20260503193514 18 248 9.7 25.7 0.00 0.00 0.00 63 1011.9
20260503193413 18 197 9.7 25.7 0.00 0.00 0.00 62 1011.9
20260503193314 18 234 9.7 24.1 0.00 0.00 0.00 63 1012.0
20260503193231 18 203 9.7 24.1 0.00 0.00 0.00 63 1012.0
20260503193213 18 259 9.7 24.1 0.00 0.00 0.00 63 1012.0
20260503193114 18 238 11.3 24.1 0.00 0.00 0.00 63 1012.0
20260503193014 18 259 11.3 24.1 0.00 0.00 0.00 62 1012.0
20260503192913 18 263 9.7 24.1 0.00 0.00 0.00 63 1012.0
20260503192814 18 240 9.7 19.3 0.00 0.00 0.00 62 1012.0
20260503192729 18 238 11.3 24.1 0.00 0.00 0.00 63 1012.0
20260503192712 18 226 11.3 24.1 0.00 0.00 0.00 63 1012.0
20260503192611 18 221 11.3 24.1 0.00 0.00 0.00 63 1012.0
20260503192510 18 166 11.3 24.1 0.00 0.00 0.00 63 1012.0
20260503192456 18 246 9.7 24.1 0.00 0.00 0.00 64 1011.9
20260503192409 18 226 9.7 24.1 0.00 0.00 0.00 64 1011.9
20260503192341 18 190 9.7 24.1 0.00 0.00 0.00 64 1012.0
20260503192208 18 277 9.7 24.1 0.00 0.00 0.00 64 1011.9
20260503192108 17 149 9.7 24.1 0.00 0.00 0.00 63 1012.0
20260503192008 17 242 9.7 24.1 0.00 0.00 0.00 63 1012.0
20260503191907 17 233 8.0 24.1 0.00 0.00 0.00 63 1012.0
20260503191808 18 270 8.0 24.1 0.00 0.00 0.00 63 1012.0
20260503191734 18 253 6.4 22.5 0.00 0.00 0.00 63 1012.1
20260503191707 18 238 6.4 22.5 0.00 0.00 0.00 63 1012.1
20260503191602 18 236 6.4 16.1 0.00 0.00 0.00 63 1012.1
20260503191502 18 225 6.4 16.1 0.00 0.00 0.00 64 1012.1
20260503191451 18 245 6.4 17.7 0.00 0.00 0.00 64 1012.2
20260503191402 18 174 6.4 17.7 0.00 0.00 0.00 64 1012.1
20260503191339 18 233 6.4 17.7 0.00 0.00 0.00 63 1012.1
20260503191200 18 239 6.4 17.7 0.00 0.00 0.00 64 1012.2
20260503191056 18 225 6.4 17.7 0.00 0.00 0.00 65 1012.1
20260503190954 18 234 6.4 17.7 0.00 0.00 0.00 65 1012.1
20260503190854 18 274 6.4 17.7 0.00 0.00 0.00 65 1012.2
20260503190754 17 232 6.4 17.7 0.00 0.00 0.00 64 1012.1
20260503190652 17 273 6.4 20.9 0.00 0.00 0.00 64 1012.1
20260503190550 18 231 6.4 20.9 0.00 0.00 0.00 64 1012.2
20260503190450 18 236 6.4 20.9 0.00 0.00 0.00 65 1012.1
20260503190348 18 239 6.4 20.9 0.00 0.00 0.00 65 1012.2
20260503190248 17 239 6.4 20.9 0.00 0.00 0.00 65 1012.2
20260503190229 17 238 6.4 20.9 0.00 0.00 0.00 65 1012.2
20260503190145 17 226 6.4 20.9 0.00 0.00 0.00 65 1012.2
20260503190040 17 243 6.4 20.9 0.00 0.00 0.00 65 1012.1
20260503185939 17 225 6.4 20.9 0.00 0.00 0.00 65 1012.2
20260503185840 17 184 6.4 20.9 0.00 0.00 0.00 65 1012.2
20260503185738 17 260 6.4 25.7 0.00 0.00 0.00 66 1012.2
20260503185730 17 274 6.4 25.7 0.00 0.00 0.00 66 1012.2
20260503185637 17 310 6.4 25.7 0.00 0.00 0.00 66 1012.2
20260503185531 17 243 6.4 25.7 0.00 0.00 0.00 66 1012.2
20260503185432 17 238 6.4 25.7 0.00 0.00 0.00 66 1012.2
20260503185331 17 158 6.4 25.7 0.00 0.00 0.00 68 1012.3
20260503185236 17 195 8.0 25.7 0.00 0.00 0.00 67 1012.2
20260503185230 17 217 8.0 25.7 0.00 0.00 0.00 67 1012.2
20260503185130 17 239 8.0 25.7 0.00 0.00 0.00 67 1012.2
20260503185023 16 250 9.7 25.7 0.00 0.00 0.00 68 1012.3
20260503184925 16 198 9.7 25.7 0.00 0.00 0.00 67 1012.3
20260503184824 16 250 8.0 25.7 0.00 0.00 0.00 67 1012.4
20260503184732 16 281 9.7 20.9 0.00 0.00 0.00 67 1012.3
20260503184725 16 242 9.7 20.9 0.00 0.00 0.00 67 1012.3
20260503184623 16 221 9.7 22.5 0.00 0.00 0.00 67 1012.3
20260503184520 16 215 9.7 22.5 0.00 0.00 0.00 68 1012.3
20260503184418 16 232 11.3 22.5 0.00 0.00 0.00 68 1012.3
20260503184318 16 232 9.7 22.5 0.00 0.00 0.00 68 1012.3
20260503184231 16 218 9.7 22.5 0.00 0.00 0.00 68 1012.3
20260503184218 16 248 9.7 22.5 0.00 0.00 0.00 68 1012.3
20260503184115 16 248 9.7 22.5 0.00 0.00 0.00 67 1012.3
20260503184010 16 255 9.7 22.5 0.00 0.00 0.00 68 1012.3
20260503183949 16 281 11.3 24.1 0.00 0.00 0.00 67 1012.3
20260503183909 16 226 11.3 24.1 0.00 0.00 0.00 68 1012.3
20260503183839 16 242 11.3 24.1 0.00 0.00 0.00 67 1012.3
20260503183708 16 194 11.3 24.1 0.00 0.00 0.00 67 1012.3
20260503183607 16 236 11.3 24.1 0.00 0.00 0.00 67 1012.3
20260503183501 16 162 11.3 24.1 0.00 0.00 0.00 67 1012.2
20260503183402 16 243 11.3 24.1 0.00 0.00 0.00 68 1012.3
20260503183302 16 243 11.3 24.1 0.00 0.00 0.00 68 1012.3
20260503183229 16 232 9.7 24.1 0.00 0.00 0.00 68 1012.2
20260503183201 16 211 9.7 24.1 0.00 0.00 0.00 68 1012.2
20260503183100 16 262 9.7 24.1 0.00 0.00 0.00 69 1012.3
20260503182954 16 232 9.7 24.1 0.00 0.00 0.00 68 1012.3
20260503182853 16 188 9.7 20.9 0.00 0.00 0.00 68 1012.3
20260503182754 16 248 9.7 20.9 0.00 0.00 0.00 68 1012.3
20260503182730 16 222 9.7 20.9 0.00 0.00 0.00 68 1012.3
20260503182654 16 240 9.7 20.9 0.00 0.00 0.00 69 1012.3
20260503182553 16 241 9.7 20.9 0.00 0.00 0.00 69 1012.3
20260503182450 16 264 9.7 20.9 0.00 0.00 0.00 70 1012.3
20260503182348 16 231 11.3 20.9 0.00 0.00 0.00 70 1012.3
20260503182247 16 123 11.3 20.9 0.00 0.00 0.00 70 1012.3
20260503182229 16 126 11.3 20.9 0.00 0.00 0.00 70 1012.3
20260503182148 16 143 11.3 20.9 0.00 0.00 0.00 69 1012.3
20260503182044 16 228 11.3 24.1 0.00 0.00 0.00 69 1012.3
20260503181942 16 204 12.9 24.1 0.00 0.00 0.00 69 1012.3
20260503181842 16 216 12.9 24.1 0.00 0.00 0.00 69 1012.3
20260503181741 16 214 11.3 24.1 0.00 0.00 0.00 70 1012.3
20260503181722 16 219 11.3 24.1 0.00 0.00 0.00 70 1012.3
20260503181642 16 246 11.3 24.1 0.00 0.00 0.00 69 1012.3
20260503181541 16 222 11.3 24.1 0.00 0.00 0.00 69 1012.3
20260503181436 16 200 11.3 25.7 0.00 0.00 0.00 70 1012.3
20260503181336 16 262 11.3 25.7 0.00 0.00 0.00 70 1012.4
20260503181236 16 256 11.3 25.7 0.00 0.00 0.00 69 1012.4
20260503181216 16 273 11.3 25.7 0.00 0.00 0.00 69 1012.4
20260503181136 16 203 11.3 25.7 0.00 0.00 0.00 70 1012.3
20260503181034 16 257 11.3 25.7 0.00 0.00 0.00 69 1012.3
20260503180928 16 274 9.7 25.7 0.00 0.00 0.00 69 1012.3
20260503180827 16 236 9.7 25.7 0.00 0.00 0.00 69 1012.3
20260503180729 16 224 8.0 25.7 0.00 0.00 0.00 69 1012.4
20260503180714 16 230 8.0 25.7 0.00 0.00 0.00 69 1012.4
20260503180628 16 232 8.0 25.7 0.00 0.00 0.00 70 1012.3
20260503180528 16 211 8.0 25.7 0.00 0.00 0.00 69 1012.3
20260503180424 16 232 6.4 20.9 0.00 0.00 0.00 69 1012.3
20260503180324 16 212 6.4 20.9 0.00 0.00 0.00 70 1012.2
20260503180227 16 266 8.0 25.7 0.00 0.00 0.00 70 1012.2
20260503180216 16 273 8.0 25.7 0.00 0.00 0.00 70 1012.2
20260503180124 16 236 8.0 25.7 0.00 0.00 0.00 70 1012.3
20260503180025 16 229 8.0 25.7 0.00 0.00 0.00 71 1012.3
20260503175924 16 242 8.0 25.7 0.00 0.00 0.00 70 1012.3
20260503175822 16 218 8.0 25.7 0.00 0.00 0.00 70 1012.3
20260503175725 16 228 8.0 25.7 0.00 0.00 0.00 71 1012.4
20260503175714 16 262 8.0 25.7 0.00 0.00 0.00 71 1012.4
20260503175622 16 243 8.0 25.7 0.00 0.00 0.00 71 1012.3
20260503175522 16 212 8.0 25.7 0.00 0.00 0.00 71 1012.3
20260503175421 16 208 8.0 25.7 0.00 0.00 0.00 71 1012.3
20260503175322 16 238 8.0 25.7 0.00 0.00 0.00 70 1012.4
20260503175224 16 250 8.0 20.9 0.00 0.00 0.00 70 1012.4
20260503175214 16 218 8.0 20.9 0.00 0.00 0.00 71 1012.4
20260503175121 16 250 8.0 17.7 0.00 0.00 0.00 71 1012.4
20260503175022 16 274 8.0 17.7 0.00 0.00 0.00 71 1012.4
20260503174921 16 236 8.0 17.7 0.00 0.00 0.00 71 1012.4
20260503174821 16 239 8.0 17.7 0.00 0.00 0.00 72 1012.4
20260503174722 15 269 9.7 17.7 0.00 0.00 0.00 71 1012.4
20260503174718 15 270 9.7 17.7 0.00 0.00 0.00 71 1012.4
20260503174616 15 243 9.7 17.7 0.00 0.00 0.00 72 1012.4
20260503174516 15 221 9.7 17.7 0.00 0.00 0.00 72 1012.5
20260503174441 15 224 9.7 20.9 0.00 0.00 0.00 71 1012.5
20260503174416 15 228 9.7 17.7 0.00 0.00 0.00 72 1012.5
20260503174325 15 221 9.7 17.7 0.00 0.00 0.00 72 1012.5
20260503174207 15 221 9.7 20.9 0.00 0.00 0.00 71 1012.5
20260503174108 15 242 9.7 20.9 0.00 0.00 0.00 71 1012.4
20260503174008 15 248 8.0 20.9 0.00 0.00 0.00 71 1012.4
20260503173907 15 177 8.0 20.9 0.00 0.00 0.00 72 1012.5
20260503173807 15 195 8.0 20.9 0.00 0.00 0.00 71 1012.5
20260503173714 15 208 8.0 20.9 0.00 0.00 0.00 72 1012.5
20260503173708 15 214 8.0 20.9 0.00 0.00 0.00 72 1012.5
20260503173608 15 219 8.0 20.9 0.00 0.00 0.00 72 1012.5
20260503173507 15 229 8.0 24.1 0.00 0.00 0.00 72 1012.4
20260503173408 15 197 9.7 25.7 0.00 0.00 0.00 72 1012.4
20260503173308 15 242 9.7 29.0 0.00 0.00 0.00 73 1012.4
20260503173215 15 290 11.3 29.0 0.00 0.00 0.00 73 1012.5
20260503173208 15 238 11.3 29.0 0.00 0.00 0.00 73 1012.5
20260503173107 15 183 11.3 29.0 0.00 0.00 0.00 73 1012.5
20260503173007 15 214 11.3 29.0 0.00 0.00 0.00 73 1012.4
20260503172906 15 200 9.7 29.0 0.00 0.00 0.00 72 1012.4
20260503172804 15 245 9.7 29.0 0.00 0.00 0.00 73 1012.4
20260503172715 15 239 9.7 29.0 0.00 0.00 0.00 73 1012.4
20260503172703 15 287 9.7 29.0 0.00 0.00 0.00 73 1012.4
20260503172601 15 228 8.0 29.0 0.00 0.00 0.00 72 1012.4
20260503172502 15 281 8.0 29.0 0.00 0.00 0.00 72 1012.4
20260503172402 15 243 8.0 27.4 0.00 0.00 0.00 73 1012.4
20260503172305 15 240 8.0 20.9 0.00 0.00 0.00 73 1012.4
20260503172214 15 235 8.0 24.1 0.00 0.00 0.00 74 1012.4
20260503172202 15 236 8.0 24.1 0.00 0.00 0.00 74 1012.4
20260503172101 15 252 8.0 24.1 0.00 0.00 0.00 73 1012.4
20260503171956 15 257 9.7 24.1 0.00 0.00 0.00 74 1012.4
20260503171934 15 222 9.7 24.1 0.00 0.00 0.00 74 1012.3
20260503171856 15 217 9.7 24.1 0.00 0.00 0.00 74 1012.3
20260503171826 15 283 9.7 24.1 0.00 0.00 0.00 74 1012.3
20260503171700 15 231 9.7 22.5 0.00 0.00 0.00 73 1012.3
20260503171656 15 221 9.7 24.1 0.00 0.00 0.00 74 1012.3
20260503171557 15 273 9.7 24.1 0.00 0.00 0.00 74 1012.4
20260503171549 15 238 9.7 24.1 0.00 0.00 0.00 73 1012.4
20260503171353 15 250 9.7 24.1 0.00 0.00 0.00 73 1012.3
20260503171326 15 211 9.7 22.5 0.00 0.00 0.00 73 1012.3
20260503171153 15 230 9.7 22.5 0.00 0.00 0.00 73 1012.3
20260503171053 15 233 8.0 22.5 0.00 0.00 0.00 73 1012.3
20260503170953 15 250 8.0 17.7 0.00 0.00 0.00 74 1012.3
20260503170852 15 143 8.0 17.7 0.00 0.00 0.00 75 1012.3
20260503170752 15 219 8.0 19.3 0.00 0.00 0.00 74 1012.2
20260503170713 15 180 8.0 19.3 0.00 0.00 0.00 74 1012.2
20260503170651 15 197 8.0 19.3 0.00 0.00 0.00 75 1012.2
20260503170550 15 236 8.0 19.3 0.00 0.00 0.00 75 1012.2
20260503170449 15 224 8.0 19.3 0.00 0.00 0.00 75 1012.1
20260503170348 15 253 6.4 19.3 0.00 0.00 0.00 75 1012.2
20260503170249 15 228 6.4 19.3 0.00 0.00 0.00 75 1012.2
20260503170212 15 243 6.4 19.3 0.00 0.00 0.00 75 1012.1
20260503170149 15 161 6.4 19.3 0.00 0.00 0.00 75 1012.1
20260503160139 13 225 6.4 16.1 0.00 0.00 0.00 79 1011.6
20260503160111 13 236 6.4 16.1 0.00 0.00 0.00 79 1011.6
20260503150959 13 205 4.8 14.5 0.00 0.00 0.00 82 1011.5
20260503150941 13 208 6.4 14.5 0.00 0.00 0.00 82 1011.5
20260503150839 13 230 6.4 14.5 0.00 0.00 0.00 82 1011.4
20260503150738 13 235 4.8 14.5 0.00 0.00 0.00 82 1011.4
20260503150636 13 188 4.8 14.5 0.00 0.00 0.00 82 1011.4
20260503150535 13 245 4.8 12.9 0.00 0.00 0.00 83 1011.5
20260503150452 12 194 4.8 11.3 0.00 0.00 0.00 83 1011.5
20260503150432 12 259 4.8 11.3 0.00 0.00 0.00 83 1011.4
20260503150333 12 163 4.8 11.3 0.00 0.00 0.00 83 1011.4
20260503150232 12 257 6.4 11.3 0.00 0.00 0.00 83 1011.4
20260503150215 12 239 6.4 12.9 0.00 0.00 0.00 83 1011.3
20260503150129 12 211 6.4 11.3 0.00 0.00 0.00 83 1011.4
20260503140312 12 226 4.8 14.5 0.00 0.00 0.00 85 1010.3
20260503140112 12 248 4.8 14.5 0.00 0.00 0.00 85 1010.2
20260503131406 12 152 4.8 14.5 0.00 0.00 0.00 86 1009.9
20260503131327 12 203 4.8 14.5 0.00 0.00 0.00 86 1009.8
20260503131229 12 200 4.8 14.5 0.00 0.00 0.00 86 1009.8
20260503131128 12 236 4.8 14.5 0.00 0.00 0.00 86 1009.8
20260503131028 12 246 4.8 14.5 0.00 0.00 0.00 86 1009.8
20260503130928 12 225 4.8 12.9 0.00 0.00 0.00 86 1009.8
20260503130858 12 225 4.8 12.9 0.00 0.00 0.00 86 1009.8
20260503130826 12 193 4.8 12.9 0.00 0.00 0.00 86 1009.7
20260503130726 12 217 4.8 12.9 0.00 0.00 0.00 86 1009.7
20260503130626 12 198 4.8 12.9 0.00 0.00 0.00 86 1009.7
20260503130526 12 193 4.8 12.9 0.00 0.00 0.00 86 1009.7
20260503130424 12 191 4.8 12.9 0.00 0.00 0.00 86 1009.7
20260503130353 12 193 4.8 12.9 0.00 0.00 0.00 86 1009.7
20260503130324 12 235 4.8 12.9 0.00 0.00 0.00 86 1009.6
20260503130224 12 195 4.8 12.9 0.00 0.00 0.00 86 1009.7
20260503120132 12 225 3.2 11.3 0.00 0.00 0.00 86 1009.5
20260503110805 12 250 4.8 16.1 0.00 0.00 0.00 86 1009.5
20260503110744 12 260 4.8 12.9 0.00 0.00 0.00 86 1009.6
20260503110643 12 219 4.8 12.9 0.00 0.00 0.00 86 1009.6
20260503110544 12 214 4.8 12.9 0.00 0.00 0.00 86 1009.6
20260503110443 12 200 4.8 12.9 0.00 0.00 0.00 86 1009.6
20260503110338 12 226 4.8 12.9 0.00 0.00 0.00 86 1009.6
20260503110259 12 218 4.8 12.9 0.00 0.00 0.00 86 1009.6
20260503110238 12 259 4.8 12.9 0.00 0.00 0.00 86 1009.5
20260503110138 12 221 4.8 12.9 0.00 0.00 0.00 86 1009.6
20260503100126 12 230 4.8 11.3 0.00 0.00 0.00 87 1009.3
20260503090420 12 235 4.8 12.9 0.00 0.00 0.00 87 1009.6
20260503090320 12 250 3.2 12.9 0.00 0.00 0.00 87 1009.7
20260503090220 12 219 3.2 12.9 0.00 0.00 0.00 87 1009.6
20260503090210 12 198 3.2 12.9 0.00 0.00 0.00 87 1009.6
20260503090113 12 243 3.2 12.9 0.00 0.00 0.00 87 1009.7
20260503081623 12 232 1.6 8.0 0.00 0.00 0.00 86 1010.1
20260503081517 12 232 1.6 8.0 0.00 0.00 0.00 86 1010.2
20260503081416 12 231 1.6 8.0 0.00 0.00 0.00 86 1010.2
20260503081316 12 248 1.6 8.0 0.00 0.00 0.00 86 1010.2
20260503081215 12 231 1.6 6.4 0.00 0.00 0.00 86 1010.2
20260503081118 12 222 3.2 6.4 0.00 0.00 0.00 86 1010.2
20260503081012 12 222 3.2 6.4 0.00 0.00 0.00 86 1010.2
20260503080911 12 223 3.2 6.4 0.00 0.00 0.00 86 1010.2
20260503080834 12 217 3.2 6.4 0.00 0.00 0.00 86 1010.2
20260503080810 12 203 3.2 6.4 0.00 0.00 0.00 86 1010.2
20260503080729 12 161 3.2 6.4 0.00 0.00 0.00 86 1010.2
20260503080715 12 217 3.2 6.4 0.00 0.00 0.00 86 1010.2
20260503080503 12 243 3.2 6.4 0.00 0.00 0.00 86 1010.2
20260503080404 12 221 3.2 6.4 0.00 0.00 0.00 86 1010.2
20260503080304 12 204 3.2 6.4 0.00 0.00 0.00 86 1010.2
20260503080204 12 238 1.6 6.4 0.00 0.00 0.00 86 1010.2
20260503080116 12 226 1.6 6.4 0.00 0.00 0.00 86 1010.2
20260503072822 12 224 0.0 4.8 0.00 0.00 0.00 86 1010.3
20260503072722 12 224 0.0 4.8 0.00 0.00 0.00 86 1010.3
20260503072622 12 203 1.6 4.8 0.00 0.00 0.00 86 1010.3
20260503072523 12 203 1.6 6.4 0.00 0.00 0.00 86 1010.3
20260503072418 12 203 1.6 6.4 0.00 0.00 0.00 86 1010.3
20260503072316 12 156 1.6 9.7 0.00 0.00 0.00 85 1010.3
20260503072215 12 218 1.6 9.7 0.00 0.00 0.00 85 1010.3
20260503072116 12 224 1.6 9.7 0.00 0.00 0.00 85 1010.3
20260503072017 12 239 1.6 9.7 0.00 0.00 0.00 85 1010.3
20260503071912 12 239 3.2 9.7 0.00 0.00 0.00 85 1010.4
20260503071810 12 239 3.2 9.7 0.00 0.00 0.00 85 1010.3
20260503071734 12 225 3.2 9.7 0.00 0.00 0.00 85 1010.4
20260503071709 12 239 3.2 9.7 0.00 0.00 0.00 85 1010.4
20260503071626 12 150 3.2 9.7 0.00 0.00 0.00 85 1010.4
20260503071616 12 225 3.2 9.7 0.00 0.00 0.00 85 1010.4
20260503071407 12 246 3.2 9.7 0.00 0.00 0.00 85 1010.3
20260503071308 12 229 3.2 9.7 0.00 0.00 0.00 85 1010.4
20260503071208 12 193 3.2 9.7 0.00 0.00 0.00 85 1010.4
20260503071106 12 233 3.2 9.7 0.00 0.00 0.00 85 1010.4
20260503071011 12 240 3.2 8.0 0.00 0.00 0.00 85 1010.4
20260503071001 12 238 3.2 8.0 0.00 0.00 0.00 85 1010.4
20260503070906 12 230 3.2 6.4 0.00 0.00 0.00 85 1010.4
20260503070804 12 212 3.2 6.4 0.00 0.00 0.00 85 1010.5
20260503070739 12 217 3.2 6.4 0.00 0.00 0.00 85 1010.6
20260503070704 12 234 3.2 6.4 0.00 0.00 0.00 85 1010.5
20260503070618 12 235 3.2 6.4 0.00 0.00 0.00 85 1010.5
20260503070501 12 217 3.2 6.4 0.00 0.00 0.00 85 1010.6
20260503070402 12 238 1.6 6.4 0.00 0.00 0.00 85 1010.5
20260503070300 12 232 1.6 6.4 0.00 0.00 0.00 85 1010.5
20260503070200 12 215 1.6 6.4 0.00 0.00 0.00 85 1010.6
20260503060328 13 239 1.6 8.0 0.00 0.00 0.00 84 1010.6
20260503060229 13 207 1.6 9.7 0.00 0.00 0.00 84 1010.5
20260503060128 13 225 1.6 9.7 0.00 0.00 0.00 84 1010.6
20260503055124 13 243 3.2 12.9 0.00 0.00 0.00 83 1010.7
20260503055109 13 239 3.2 12.9 0.00 0.00 0.00 83 1010.6
20260503054916 13 221 3.2 12.9 0.00 0.00 0.00 83 1010.6
20260503054816 13 218 4.8 12.9 0.00 0.00 0.00 83 1010.6
20260503054720 13 252 3.2 9.7 0.00 0.00 0.00 83 1010.6
20260503054712 13 231 4.8 12.9 0.00 0.00 0.00 83 1010.6
20260503054609 13 284 4.8 12.9 0.00 0.00 0.00 83 1010.6
20260503054601 13 210 3.2 12.9 0.00 0.00 0.00 83 1010.6
20260503054410 13 212 4.8 12.9 0.00 0.00 0.00 83 1010.6
20260503054310 13 259 4.8 12.9 0.00 0.00 0.00 83 1010.6
20260503054212 13 263 4.8 12.9 0.00 0.00 0.00 83 1010.7
20260503054204 13 257 4.8 12.9 0.00 0.00 0.00 83 1010.6
20260503054108 13 233 4.8 12.9 0.00 0.00 0.00 83 1010.6
20260503054056 13 217 4.8 12.9 0.00 0.00 0.00 83 1010.7
20260503053904 13 98 4.8 12.9 0.00 0.00 0.00 83 1010.7
20260503053804 13 158 6.4 12.9 0.00 0.00 0.00 83 1010.7
20260503053702 13 170 6.4 12.9 0.00 0.00 0.00 83 1010.6
20260503053602 13 250 6.4 12.9 0.00 0.00 0.00 83 1010.6
20260503053503 13 257 6.4 12.9 0.00 0.00 0.00 83 1010.6
20260503053439 13 248 4.8 12.9 0.00 0.00 0.00 83 1010.6
20260503053401 13 232 4.8 12.9 0.00 0.00 0.00 83 1010.6
20260503053258 13 208 4.8 12.9 0.00 0.00 0.00 83 1010.6
20260503053153 13 273 4.8 12.9 0.00 0.00 0.00 83 1010.6
20260503053132 13 217 3.2 16.1 0.00 0.00 0.00 83 1010.6
20260503053054 13 236 4.8 12.9 0.00 0.00 0.00 83 1010.6
20260503053031 13 232 3.2 12.9 0.00 0.00 0.00 83 1010.6
20260503053020 13 238 3.2 12.9 0.00 0.00 0.00 83 1010.5
20260503052855 13 243 3.2 12.9 0.00 0.00 0.00 82 1010.5
20260503052800 13 240 3.2 12.9 0.00 0.00 0.00 83 1010.6
20260503052646 13 226 3.2 16.1 0.00 0.00 0.00 83 1010.6
20260503052546 13 212 3.2 16.1 0.00 0.00 0.00 83 1010.7
20260503052537 13 217 3.2 16.1 0.00 0.00 0.00 83 1010.6
20260503052346 13 215 3.2 16.1 0.00 0.00 0.00 83 1010.6
20260503052246 13 215 3.2 16.1 0.00 0.00 0.00 82 1010.6
20260503052142 13 233 3.2 16.1 0.00 0.00 0.00 82 1010.5
20260503052040 13 231 3.2 16.1 0.00 0.00 0.00 82 1010.6
20260503051940 13 270 3.2 16.1 0.00 0.00 0.00 82 1010.6
20260503051921 13 271 3.2 16.1 0.00 0.00 0.00 82 1010.6
20260503051840 13 269 3.2 16.1 0.00 0.00 0.00 82 1010.6
20260503051741 13 271 3.2 16.1 0.00 0.00 0.00 82 1010.6
20260503051634 13 266 3.2 14.5 0.00 0.00 0.00 82 1010.6
20260503051535 13 217 3.2 14.5 0.00 0.00 0.00 82 1010.6
20260503051434 13 270 3.2 14.5 0.00 0.00 0.00 82 1010.6
20260503051413 13 228 3.2 14.5 0.00 0.00 0.00 82 1010.6
20260503051334 13 252 3.2 12.9 0.00 0.00 0.00 82 1010.6
20260503051234 13 248 3.2 12.9 0.00 0.00 0.00 82 1010.6
20260503051132 13 200 3.2 12.9 0.00 0.00 0.00 82 1010.6
20260503051035 13 239 3.2 12.9 0.00 0.00 0.00 82 1010.6
20260503050932 13 226 4.8 12.9 0.00 0.00 0.00 81 1010.6
20260503050909 13 219 4.8 12.9 0.00 0.00 0.00 81 1010.6
20260503050829 13 238 4.8 12.9 0.00 0.00 0.00 81 1010.6
20260503050729 13 212 4.8 12.9 0.00 0.00 0.00 81 1010.6
20260503050622 13 219 4.8 12.9 0.00 0.00 0.00 81 1010.5
20260503050522 13 239 3.2 12.9 0.00 0.00 0.00 81 1010.5
20260503050422 13 242 4.8 12.9 0.00 0.00 0.00 81 1010.5
20260503050403 13 236 4.8 12.9 0.00 0.00 0.00 81 1010.5
20260503050322 13 229 4.8 12.9 0.00 0.00 0.00 81 1010.5
20260503050222 13 239 3.2 12.9 0.00 0.00 0.00 81 1010.5
20260503050116 13 296 3.2 12.9 0.00 0.00 0.00 81 1010.6
20260503050016 13 236 4.8 12.9 0.00 0.00 0.00 81 1010.6
20260503045916 13 248 3.2 12.9 0.00 0.00 0.00 81 1010.5
20260503045856 13 192 3.2 12.9 0.00 0.00 0.00 81 1010.5
20260503045816 13 221 3.2 12.9 0.00 0.00 0.00 81 1010.5
20260503045715 13 233 3.2 12.9 0.00 0.00 0.00 81 1010.5
20260503045618 13 218 3.2 12.9 0.00 0.00 0.00 81 1010.4
20260503045611 13 211 3.2 12.9 0.00 0.00 0.00 81 1010.4
20260503045510 13 243 3.2 12.9 0.00 0.00 0.00 81 1010.4
20260503045502 13 248 3.2 12.9 0.00 0.00 0.00 81 1010.4
20260503045311 13 273 3.2 12.9 0.00 0.00 0.00 81 1010.4
20260503045210 13 212 3.2 12.9 0.00 0.00 0.00 81 1010.4
20260503045107 13 248 3.2 12.9 0.00 0.00 0.00 80 1010.3
20260503045006 13 238 4.8 20.9 0.00 0.00 0.00 80 1010.3
20260503044906 13 233 3.2 20.9 0.00 0.00 0.00 81 1010.4
20260503044850 13 236 3.2 20.9 0.00 0.00 0.00 80 1010.4
20260503044836 13 235 4.8 20.9 0.00 0.00 0.00 80 1010.2
20260503044806 13 236 4.8 20.9 0.00 0.00 0.00 80 1010.3
20260503044725 13 235 4.8 20.9 0.00 0.00 0.00 80 1010.3
20260503044600 13 232 4.8 20.9 0.00 0.00 0.00 80 1010.3
20260503044509 13 201 4.8 20.9 0.00 0.00 0.00 80 1010.3
20260503044500 13 239 4.8 20.9 0.00 0.00 0.00 80 1010.2
20260503044258 13 288 6.4 20.9 0.00 0.00 0.00 80 1010.3
20260503044158 13 231 6.4 20.9 0.00 0.00 0.00 80 1010.2
20260503044052 13 217 6.4 20.9 0.00 0.00 0.00 80 1010.2
20260503043952 13 225 4.8 17.7 0.00 0.00 0.00 80 1010.3
20260503043856 13 248 4.8 17.7 0.00 0.00 0.00 80 1010.2
20260503043753 13 245 4.8 17.7 0.00 0.00 0.00 79 1010.2
20260503043652 14 252 4.8 17.7 0.00 0.00 0.00 79 1010.2
20260503043546 14 222 4.8 17.7 0.00 0.00 0.00 79 1010.2
20260503043446 14 248 4.8 16.1 0.00 0.00 0.00 79 1010.2
20260503043352 14 253 4.8 16.1 0.00 0.00 0.00 79 1010.2
20260503043346 14 255 4.8 16.1 0.00 0.00 0.00 79 1010.2
20260503043246 14 197 4.8 14.5 0.00 0.00 0.00 79 1010.2
20260503043146 14 255 6.4 19.3 0.00 0.00 0.00 79 1010.2
20260503043121 14 253 6.4 19.3 0.00 0.00 0.00 79 1010.2
20260503043044 14 224 6.4 19.3 0.00 0.00 0.00 79 1010.2
20260503043002 14 241 6.4 19.3 0.00 0.00 0.00 79 1010.2
20260503042845 14 250 6.4 19.3 0.00 0.00 0.00 79 1010.2
20260503042742 14 243 6.4 19.3 0.00 0.00 0.00 79 1010.1
20260503042642 14 215 6.4 19.3 0.00 0.00 0.00 79 1010.1
20260503042542 14 231 8.0 19.3 0.00 0.00 0.00 79 1010.1
20260503042442 14 240 8.0 19.3 0.00 0.00 0.00 79 1010.1
20260503042350 14 239 8.0 19.3 0.00 0.00 0.00 79 1010.1
20260503042343 14 243 8.0 19.3 0.00 0.00 0.00 79 1010.2
20260503042242 14 271 8.0 19.3 0.00 0.00 0.00 79 1010.2
20260503042142 14 233 8.0 19.3 0.00 0.00 0.00 79 1010.1
20260503042042 14 238 8.0 19.3 0.00 0.00 0.00 78 1010.1
20260503041943 14 238 8.0 19.3 0.00 0.00 0.00 78 1010.1
20260503041847 14 215 8.0 19.3 0.00 0.00 0.00 78 1010.1
20260503041842 14 266 8.0 19.3 0.00 0.00 0.00 78 1010.1
20260503041742 14 239 8.0 19.3 0.00 0.00 0.00 78 1010.1
20260503041642 14 239 6.4 19.3 0.00 0.00 0.00 78 1010.1
20260503041542 14 224 6.4 19.3 0.00 0.00 0.00 78 1010.1
20260503041442 14 251 6.4 16.1 0.00 0.00 0.00 78 1010.1
20260503041348 14 146 6.4 12.9 0.00 0.00 0.00 78 1010.1
20260503041335 14 236 6.4 12.9 0.00 0.00 0.00 78 1010.1
20260503041236 14 221 4.8 12.9 0.00 0.00 0.00 78 1010.1
20260503041136 14 235 4.8 12.9 0.00 0.00 0.00 78 1010.1
20260503041036 14 248 4.8 12.9 0.00 0.00 0.00 78 1010.1
20260503040937 14 207 4.8 12.9 0.00 0.00 0.00 78 1010.1
20260503040850 14 248 4.8 12.9 0.00 0.00 0.00 78 1010.1
20260503040836 14 264 4.8 12.9 0.00 0.00 0.00 78 1010.1
20260503040736 14 225 4.8 12.9 0.00 0.00 0.00 78 1010.1
20260503040636 14 230 4.8 12.9 0.00 0.00 0.00 78 1010.1
20260503040537 15 218 4.8 12.9 0.00 0.00 0.00 78 1010.0
20260503040436 15 237 4.8 14.5 0.00 0.00 0.00 78 1010.0
20260503040349 15 229 4.8 16.1 0.00 0.00 0.00 78 1010.0
20260503040336 15 225 4.8 16.1 0.00 0.00 0.00 78 1010.0
20260503040236 15 240 4.8 16.1 0.00 0.00 0.00 78 1010.0
20260503040136 15 259 6.4 16.1 0.00 0.00 0.00 78 1010.0
20260503040035 15 270 6.4 16.1 0.00 0.00 0.00 78 1010.0
20260503035936 15 243 6.4 16.1 0.00 0.00 0.00 77 1010.0
20260503035847 15 252 6.4 16.1 0.00 0.00 0.00 77 1010.0
20260503035836 15 248 6.4 16.1 0.00 0.00 0.00 77 1010.0
20260503035736 15 236 6.4 16.1 0.00 0.00 0.00 77 1010.0
20260503035632 15 240 4.8 16.1 0.00 0.00 0.00 77 1010.0
20260503035533 15 236 4.8 16.1 0.00 0.00 0.00 77 1009.9
20260503035432 15 256 3.2 16.1 0.00 0.00 0.00 77 1009.9
20260503035350 15 243 3.2 14.5 0.00 0.00 0.00 77 1009.9
20260503035332 15 256 3.2 14.5 0.00 0.00 0.00 77 1009.9
20260503035232 15 212 3.2 12.9 0.00 0.00 0.00 77 1009.9
20260503035132 15 249 3.2 12.9 0.00 0.00 0.00 77 1009.8
20260503035032 15 204 3.2 12.9 0.00 0.00 0.00 77 1009.8
20260503034932 15 228 3.2 9.7 0.00 0.00 0.00 77 1009.9
20260503034847 15 240 3.2 12.9 0.00 0.00 0.00 77 1009.9
20260503034832 15 236 3.2 12.9 0.00 0.00 0.00 77 1009.9
20260503034732 15 221 3.2 19.3 0.00 0.00 0.00 77 1009.9
20260503034630 15 255 4.8 19.3 0.00 0.00 0.00 77 1009.9
20260503034528 15 217 4.8 19.3 0.00 0.00 0.00 77 1009.8
20260503034428 15 259 4.8 19.3 0.00 0.00 0.00 77 1009.9
20260503034350 15 259 4.8 19.3 0.00 0.00 0.00 77 1009.9
20260503034326 15 266 6.4 19.3 0.00 0.00 0.00 77 1009.9
20260503034225 15 242 6.4 19.3 0.00 0.00 0.00 77 1009.8
20260503034124 15 217 6.4 19.3 0.00 0.00 0.00 77 1009.8
20260503034029 15 228 6.4 19.3 0.00 0.00 0.00 77 1009.8
20260503033924 15 257 6.4 19.3 0.00 0.00 0.00 77 1009.8
20260503033848 15 231 6.4 19.3 0.00 0.00 0.00 77 1009.9
20260503033825 15 239 6.4 14.5 0.00 0.00 0.00 77 1009.9
20260503033725 15 236 6.4 14.5 0.00 0.00 0.00 77 1009.8
20260503033624 15 245 6.4 16.1 0.00 0.00 0.00 77 1009.8
20260503033525 15 248 6.4 16.1 0.00 0.00 0.00 77 1009.8
20260503033424 15 242 6.4 16.1 0.00 0.00 0.00 77 1009.8
20260503033343 15 228 6.4 16.1 0.00 0.00 0.00 77 1009.8
20260503033324 15 228 4.8 16.1 0.00 0.00 0.00 77 1009.8
20260503033224 15 214 4.8 16.1 0.00 0.00 0.00 77 1009.8
20260503033124 15 225 6.4 16.1 0.00 0.00 0.00 77 1009.7
20260503033028 15 248 4.8 16.1 0.00 0.00 0.00 76 1009.7
20260503032928 15 242 4.8 16.1 0.00 0.00 0.00 76 1009.7
20260503032856 15 245 4.8 16.1 0.00 0.00 0.00 76 1009.7
20260503032824 15 246 4.8 16.1 0.00 0.00 0.00 76 1009.7
20260503032724 15 236 4.8 16.1 0.00 0.00 0.00 76 1009.8
20260503032624 15 230 3.2 16.1 0.00 0.00 0.00 76 1009.8
20260503032524 15 262 3.2 16.1 0.00 0.00 0.00 76 1009.8
20260503032422 15 263 3.2 16.1 0.00 0.00 0.00 76 1009.8
20260503032343 15 229 3.2 16.1 0.00 0.00 0.00 76 1009.7
20260503032320 15 285 4.8 16.1 0.00 0.00 0.00 75 1009.7
20260503032220 15 243 3.2 11.3 0.00 0.00 0.00 75 1009.7
20260503032120 15 253 3.2 9.7 0.00 0.00 0.00 75 1009.7
20260503032030 15 236 4.8 9.7 0.00 0.00 0.00 75 1009.7
20260503031920 15 235 4.8 12.9 0.00 0.00 0.00 75 1009.7
20260503031844 15 238 4.8 12.9 0.00 0.00 0.00 75 1009.7
20260503031820 15 225 4.8 12.9 0.00 0.00 0.00 75 1009.7
20260503031724 15 245 4.8 12.9 0.00 0.00 0.00 75 1009.7
20260503031614 16 235 4.8 12.9 0.00 0.00 0.00 75 1009.8
20260503031514 16 238 4.8 12.9 0.00 0.00 0.00 75 1009.8
20260503031414 16 240 4.8 12.9 0.00 0.00 0.00 75 1009.7
20260503031343 16 229 4.8 12.9 0.00 0.00 0.00 75 1009.7
20260503031315 16 238 4.8 12.9 0.00 0.00 0.00 74 1009.7
20260503031204 16 233 4.8 12.9 0.00 0.00 0.00 74 1009.7
20260503031104 16 214 4.8 12.9 0.00 0.00 0.00 74 1009.7
20260503031004 16 226 4.8 12.9 0.00 0.00 0.00 75 1009.7
20260503030844 16 224 4.8 11.3 0.00 0.00 0.00 74 1009.7
20260503030802 16 271 3.2 11.3 0.00 0.00 0.00 74 1009.7
20260503030658 16 219 3.2 11.3 0.00 0.00 0.00 74 1009.7
20260503030559 16 259 3.2 11.3 0.00 0.00 0.00 74 1009.7
20260503030459 16 267 3.2 11.3 0.00 0.00 0.00 74 1009.6
20260503030405 16 225 3.2 11.3 0.00 0.00 0.00 74 1009.7
20260503030355 16 222 3.2 14.5 0.00 0.00 0.00 74 1009.6
20260503030256 16 253 3.2 14.5 0.00 0.00 0.00 74 1009.6
20260503030152 16 256 3.2 14.5 0.00 0.00 0.00 74 1009.7
20260503030052 16 238 3.2 14.5 0.00 0.00 0.00 74 1009.6
20260503025952 16 229 3.2 14.5 0.00 0.00 0.00 74 1009.6
20260503025856 16 228 3.2 14.5 0.00 0.00 0.00 74 1009.6
20260503025845 16 229 3.2 14.5 0.00 0.00 0.00 74 1009.6
20260503025750 16 228 3.2 14.5 0.00 0.00 0.00 74 1009.6
20260503025650 16 245 3.2 14.5 0.00 0.00 0.00 73 1009.6
20260503025548 16 218 4.8 14.5 0.00 0.00 0.00 73 1009.6
20260503025448 16 224 4.8 14.5 0.00 0.00 0.00 73 1009.5
20260503025353 16 257 4.8 14.5 0.00 0.00 0.00 73 1009.5
20260503025342 16 240 4.8 14.5 0.00 0.00 0.00 73 1009.5
20260503025248 16 257 4.8 17.7 0.00 0.00 0.00 73 1009.5
20260503025146 16 256 4.8 17.7 0.00 0.00 0.00 73 1009.5
20260503025046 16 200 4.8 17.7 0.00 0.00 0.00 73 1009.5
20260503024946 16 249 3.2 17.7 0.00 0.00 0.00 73 1009.5
20260503024850 16 217 3.2 17.7 0.00 0.00 0.00 73 1009.5
20260503024840 16 207 3.2 17.7 0.00 0.00 0.00 73 1009.5
20260503024744 16 257 3.2 17.7 0.00 0.00 0.00 73 1009.5
20260503024644 16 218 3.2 17.7 0.00 0.00 0.00 73 1009.5
20260503024544 16 253 3.2 17.7 0.00 0.00 0.00 73 1009.5
20260503024444 16 236 3.2 17.7 0.00 0.00 0.00 72 1009.6
20260503024341 16 176 1.6 17.7 0.00 0.00 0.00 73 1009.5
20260503024244 16 233 1.6 9.7 0.00 0.00 0.00 73 1009.5
20260503024144 16 245 1.6 9.7 0.00 0.00 0.00 73 1009.5
20260503024044 16 239 1.6 11.3 0.00 0.00 0.00 73 1009.5
20260503023942 17 239 3.2 11.3 0.00 0.00 0.00 73 1009.5
20260503023845 17 239 3.2 11.3 0.00 0.00 0.00 73 1009.5
20260503023739 17 239 3.2 11.3 0.00 0.00 0.00 72 1009.4
20260503023640 17 239 4.8 11.3 0.00 0.00 0.00 72 1009.4
20260503023608 17 224 4.8 14.5 0.00 0.00 0.00 72 1009.4
20260503023538 17 239 4.8 14.5 0.00 0.00 0.00 72 1009.5
20260503023449 17 225 4.8 14.5 0.00 0.00 0.00 72 1009.4
20260503023332 17 240 4.8 14.5 0.00 0.00 0.00 72 1009.4
20260503023233 17 216 4.8 14.5 0.00 0.00 0.00 72 1009.4